ARIANE 42P R/B

Satellite information

Favourite Embed

Satellite Type and Status

ROCKET BODYIN ORBIT

Key statistics

Satellite ARIANE 42P R/B at a glance.

Uptime

12590

Days in orbit

Revolutions

≈ 4.5

Per day

Orbit

MEO

Medium Earth Orbit

Inclination

7.1

Latest

Satellite identification and parameters

Extended collection of information and parameters for ARIANE 42P R/B.

Object identification

Identified? True

Debris? False

Object name: ARIANE 42P R/B

International designator: 1990-100C

Object number (NORAD): 20947

Object ID (CCSDS): 20947

Country: FRANCE (FR)

Current information (Y/N): Y

RCS size: LARGE

Orbital parameters

Period: 320.318 minutes

Inclination: 7.131 deg

SMA: 15507.718 km

Apoapsis: 18071.725 km

Periapsis: 187.442 km

RAAN: 317.2549 deg

Eccentricy: 0.5766252

Argument of periapsis: 122.4608 deg

Mean anomaly: 306.209 deg

Mean motion: 4.49553004 rev/day

Mean motion (dot): 0.00117224 rev/day2

B* drag term: 0.0022445 1/REarth

Two-line elements (TLE)

Creation date: May 9, 2025, 2:46 a.m.

Reference frame: TEME

Reference center: EARTH

Epoch: May 8, 2025, 3:56 a.m. UTC

TLE line 0: 0 ARIANE 42P R/B

TLE line 1: 1 20947U 90100C 25128.16417417 .00117224 -27837-7 22445-2 0 9992

TLE line 2: 2 20947 7.1310 317.2549 5766252 122.4608 306.2090 4.49553004362446

Live tracking on map

Real-time ground track for satellite ARIANE 42P R/B.

In-orbit conjunctions

A list of the most updated potential collisions computed for object ARIANE 42P R/B.

Target Orbit TCA Probability of collision Miss distance Type
ARIANE 5 DEB (SYLDA) GTO 2024-08-24 10:54:15 TBA 3917.0 (m) DEBRIS

Associated space launch

Geostationary communications satellites

ARIANE 42P R/B was lifted into orbit during the mission ‘Ariane 42P | Satcom C1 & GStar 4’, on board a Ariane 42P space rocket.

The launch took place on Nov. 20, 1990, 11:11 p.m. from Ariane Launch Area 2.

For more information about the launch, click the button.

Launch to space Ariane 42P | Satcom C1 & GStar 4
Ariane 42P | Satcom C1 & GStar 4

Agency: N/A

Status: Launch Successful

Launch date: Nov. 20, 1990, 11:11 p.m. UTC

Rocket: Ariane 42P

Launch pad: Ariane Launch Area 2

Location: Guiana Space Centre, French Guiana

...

Latest news about this satellite

There are no fresh news available about this satellite. Check back as we update our databases every day.


Newsletter sign-up

Weekly statistics, charts and insights to help you stay on top of the space industry.